Location: Corralito
(10.2667°N, 66.9500°W)
Time: 17:26:08
(UTC+00:00)

CZ-4B DEB - Pass Details

Date: 09 December 2023
Orbit: 838 x 858 km, 99.0° (Epoch: 28 February)

Event Time Altitude Azimuth Distance (km) Brightness Sun altitude
Rises 00:47:44 0° 197° (SSW) 3,409 7.8 -37.9°
Reaches altitude 10° 00:50:43 10° 213° (SSW) 2,477 7.1 -38.6°
Maximum altitude 00:54:37 20° 259° (W) 1,870 6.5 -39.5°
Drops below altitude 10° 00:58:34 10° 305° (NW) 2,484 6.9 -40.4°
Enters shadow 00:59:33 - 312° (NW) 2,768 7.1 -40.6°
